COSMOS 2434 (721)

Last updated on Tue Jan 14 2025 00:03:10 GMT+0000 (Coordinated Universal Time)

1 32393U 07065A 25013.30230736 .00000080 00000+0 00000+0 0 9999 2 32393 64.3169 209.4625 0005033 73.4833 67.5400 2.13101323132697
UTC large
Height (km)
Speed (km/s)
/
Latitude / Longitude
Inclination (degrees)
Orbital Period (minutes)
Azimuth
Elevation
Range (km)
Doppler Factor

Next 0 passes for location: London (51.5072 / 0.1276)

Sorry there are no passes over London.